Wetterdaten: Donnerstag, 26.05.2016
Datum Zeit Auen-Temp. Temp gefhlt Luftfeuchte Luftdruck Regen Wind Richtung Richtung Sonnenschein Taupunkt Windben
26.05.2016 00:00 10,2 C 9,9 C 82 % 1016,2 hPa 0,0 mm 0,0 km/h (0 Bft) N-NO 22 0 min 7,3 C 0,0 km/h (0 Bft)
26.05.2016 00:05 10,2 C 9,9 C 82 % 1016,2 hPa 0,0 mm 0,0 km/h (0 Bft) N-NO 22 0 min 7,3 C 0,0 km/h (0 Bft)
26.05.2016 00:10 10,0 C 9,7 C 82 % 1016,2 hPa 0,0 mm 0,0 km/h (0 Bft) N-NW 337 0 min 7,1 C 0,0 km/h (0 Bft)
26.05.2016 00:15 9,9 C 9,6 C 82 % 1016,2 hPa 0,0 mm 0,0 km/h (0 Bft) N 360 0 min 7,0 C 0,0 km/h (0 Bft)
26.05.2016 00:20 9,9 C 9,6 C 82 % 1016,2 hPa 0,0 mm 0,0 km/h (0 Bft) N 360 0 min 7,0 C 0,0 km/h (0 Bft)
26.05.2016 00:25 9,9 C 9,6 C 82 % 1016,2 hPa 0,0 mm 0,0 km/h (0 Bft) N-NO 22 0 min 7,0 C 0,0 km/h (0 Bft)
26.05.2016 00:30 9,9 C 9,7 C 82 % 1016,2 hPa 0,0 mm 0,0 km/h (0 Bft) N 360 0 min 7,0 C 0,0 km/h (0 Bft)
26.05.2016 00:35 9,9 C 9,7 C 82 % 1016,2 hPa 0,0 mm 0,0 km/h (0 Bft) N-NW 337 0 min 7,0 C 0,0 km/h (0 Bft)
26.05.2016 00:40 10,0 C 9,7 C 82 % 1016,2 hPa 0,0 mm 0,0 km/h (0 Bft) N-NW 337 0 min 7,1 C 0,0 km/h (0 Bft)
26.05.2016 00:45 10,0 C 9,7 C 82 % 1016,2 hPa 0,0 mm 0,0 km/h (0 Bft) N-NO 22 0 min 7,1 C 0,0 km/h (0 Bft)
26.05.2016 00:50 9,9 C 9,6 C 82 % 1016,2 hPa 0,0 mm 0,0 km/h (0 Bft) N-NW 337 0 min 7,0 C 0,0 km/h (0 Bft)
26.05.2016 00:55 9,9 C 9,5 C 82 % 1016,2 hPa 0,0 mm 0,0 km/h (0 Bft) NW 315 0 min 7,0 C 0,0 km/h (0 Bft)
26.05.2016 01:00 9,8 C 9,5 C 82 % 1016,2 hPa 0,0 mm 0,0 km/h (0 Bft) N-NW 337 0 min 6,9 C 0,0 km/h (0 Bft)
26.05.2016 01:05 9,7 C 9,4 C 82 % 1016,2 hPa 0,0 mm 0,0 km/h (0 Bft) W-NW 292 0 min 6,8 C 0,0 km/h (0 Bft)
26.05.2016 01:10 9,8 C 9,5 C 82 % 1015,9 hPa 0,0 mm 0,0 km/h (0 Bft) N 360 0 min 6,9 C 0,0 km/h (0 Bft)
26.05.2016 01:15 9,8 C 9,5 C 82 % 1015,9 hPa 0,0 mm 0,0 km/h (0 Bft) N 360 0 min 6,9 C 0,0 km/h (0 Bft)
26.05.2016 01:20 9,8 C 9,5 C 82 % 1015,9 hPa 0,0 mm 0,0 km/h (0 Bft) NO 45 0 min 6,9 C 0,0 km/h (0 Bft)
26.05.2016 01:25 9,8 C 9,5 C 82 % 1015,9 hPa 0,0 mm 0,0 km/h (0 Bft) NW 315 0 min 6,9 C 0,0 km/h (0 Bft)
26.05.2016 01:30 9,8 C 9,5 C 82 % 1016,1 hPa 0,0 mm 0,0 km/h (0 Bft) NW 315 0 min 6,9 C 0,0 km/h (0 Bft)
26.05.2016 01:35 9,8 C 9,5 C 82 % 1016,1 hPa 0,0 mm 0,0 km/h (0 Bft) NO 45 0 min 6,9 C 0,0 km/h (0 Bft)
26.05.2016 01:40 9,8 C 9,6 C 82 % 1016,1 hPa 0,0 mm 0,0 km/h (0 Bft) O-NO 67 0 min 6,9 C 0,0 km/h (0 Bft)
26.05.2016 01:45 9,9 C 9,6 C 82 % 1016,1 hPa 0,0 mm 0,0 km/h (0 Bft) N-NO 22 0 min 7,0 C 0,0 km/h (0 Bft)
26.05.2016 01:50 9,8 C 9,5 C 82 % 1016,1 hPa 0,0 mm 0,0 km/h (0 Bft) NW 315 0 min 6,9 C 0,0 km/h (0 Bft)
26.05.2016 01:55 9,7 C 9,4 C 82 % 1016,1 hPa 0,0 mm 0,0 km/h (0 Bft) NO 45 0 min 6,8 C 0,0 km/h (0 Bft)
26.05.2016 02:00 9,7 C 9,4 C 82 % 1016,1 hPa 0,0 mm 0,0 km/h (0 Bft) NW 315 0 min 6,8 C 0,0 km/h (0 Bft)
26.05.2016 02:05 9,7 C 9,5 C 82 % 1016,1 hPa 0,0 mm 0,0 km/h (0 Bft) O-SO 112 0 min 6,8 C 0,0 km/h (0 Bft)
26.05.2016 02:10 9,9 C 9,7 C 83 % 1016,1 hPa 0,0 mm 0,0 km/h (0 Bft) N-NO 22 0 min 7,2 C 0,0 km/h (0 Bft)
26.05.2016 02:15 10,0 C 9,8 C 82 % 1016,1 hPa 0,0 mm 0,0 km/h (0 Bft) S-SO 157 0 min 7,1 C 0,0 km/h (0 Bft)
26.05.2016 02:20 10,2 C 10,0 C 83 % 1016,1 hPa 0,0 mm 0,0 km/h (0 Bft) NW 315 0 min 7,4 C 0,0 km/h (0 Bft)
26.05.2016 02:25 10,2 C 10,1 C 83 % 1016,1 hPa 0,0 mm 0,0 km/h (0 Bft) NW 315 0 min 7,4 C 0,0 km/h (0 Bft)
26.05.2016 02:30 10,2 C 10,2 C 82 % 1016,1 hPa 0,0 mm 0,0 km/h (0 Bft) N-NW 337 0 min 7,3 C 0,0 km/h (0 Bft)
26.05.2016 02:35 10,2 C 10,1 C 82 % 1016,1 hPa 0,0 mm 0,0 km/h (0 Bft) NW 315 0 min 7,3 C 0,0 km/h (0 Bft)
26.05.2016 02:40 10,2 C 10,1 C 82 % 1016,1 hPa 0,0 mm 0,0 km/h (0 Bft) NW 315 0 min 7,3 C 0,0 km/h (0 Bft)
26.05.2016 02:45 10,3 C 10,2 C 82 % 1016,1 hPa 0,0 mm 0,0 km/h (0 Bft) NW 315 0 min 7,4 C 0,0 km/h (0 Bft)
26.05.2016 02:50 10,3 C 10,2 C 82 % 1015,9 hPa 0,0 mm 0,0 km/h (0 Bft) W-NW 292 0 min 7,4 C 0,0 km/h (0 Bft)
26.05.2016 02:55 10,3 C 10,3 C 82 % 1015,9 hPa 0,0 mm 0,0 km/h (0 Bft) W 270 0 min 7,4 C 0,0 km/h (0 Bft)
26.05.2016 02:58 10,3 C 10,4 C 83 % 1015,9 hPa 0,0 mm 0,0 km/h (0 Bft) W-NW 292 0 min 7,5 C 0,0 km/h (0 Bft)
26.05.2016 02:59 10,3 C 10,4 C 83 % 1015,9 hPa 0,0 mm 0,0 km/h (0 Bft) W-NW 292 0 min 7,5 C 0,0 km/h (0 Bft)
26.05.2016 03:00 10,3 C 10,4 C 83 % 1015,9 hPa 0,0 mm 0,0 km/h (0 Bft) W-NW 292 0 min 7,5 C 0,0 km/h (0 Bft)
26.05.2016 03:05 10,5 C 10,4 C 83 % 1015,9 hPa 0,0 mm 0,0 km/h (0 Bft) NW 315 0 min 7,7 C 0,0 km/h (0 Bft)
26.05.2016 03:10 10,6 C 10,6 C 83 % 1015,8 hPa 0,0 mm 0,0 km/h (0 Bft) N-NO 22 0 min 7,8 C 0,0 km/h (0 Bft)
26.05.2016 03:15 10,6 C 10,6 C 83 % 1015,8 hPa 0,0 mm 0,0 km/h (0 Bft) N-NO 22 0 min 7,8 C 0,0 km/h (0 Bft)
26.05.2016 03:20 10,6 C 10,5 C 83 % 1015,8 hPa 0,0 mm 0,0 km/h (0 Bft) NW 315 0 min 7,8 C 0,0 km/h (0 Bft)
26.05.2016 03:25 10,7 C 10,6 C 83 % 1015,8 hPa 0,0 mm 0,0 km/h (0 Bft) NO 45 0 min 7,9 C 0,0 km/h (0 Bft)
26.05.2016 03:30 10,6 C 10,5 C 82 % 1015,8 hPa 0,0 mm 0,0 km/h (0 Bft) S-SO 157 0 min 7,7 C 0,0 km/h (0 Bft)
26.05.2016 03:35 10,6 C 10,5 C 82 % 1015,8 hPa 0,0 mm 0,0 km/h (0 Bft) NW 315 0 min 7,7 C 0,0 km/h (0 Bft)
26.05.2016 03:40 10,6 C 10,5 C 82 % 1015,8 hPa 0,0 mm 0,0 km/h (0 Bft) N-NO 22 0 min 7,7 C 0,0 km/h (0 Bft)
26.05.2016 03:45 10,6 C 10,6 C 82 % 1015,8 hPa 0,0 mm 0,0 km/h (0 Bft) N-NW 337 0 min 7,7 C 0,0 km/h (0 Bft)
26.05.2016 03:50 10,6 C 10,6 C 82 % 1015,8 hPa 0,0 mm 0,0 km/h (0 Bft) SW 225 0 min 7,7 C 0,0 km/h (0 Bft)
26.05.2016 03:55 10,7 C 10,7 C 82 % 1015,8 hPa 0,0 mm 0,0 km/h (0 Bft) N-NW 337 0 min 7,8 C 0,0 km/h (0 Bft)
26.05.2016 04:00 10,8 C 10,7 C 82 % 1015,8 hPa 0,0 mm 0,0 km/h (0 Bft) NW 315 0 min 7,9 C 0,0 km/h (0 Bft)
26.05.2016 04:05 10,8 C 10,7 C 82 % 1015,8 hPa 0,0 mm 0,0 km/h (0 Bft) NO 45 0 min 7,9 C 0,0 km/h (0 Bft)
26.05.2016 04:10 10,8 C 10,7 C 82 % 1015,8 hPa 0,0 mm 0,0 km/h (0 Bft) N-NO 22 0 min 7,9 C 0,0 km/h (0 Bft)
26.05.2016 04:15 10,8 C 10,7 C 82 % 1015,8 hPa 0,0 mm 0,0 km/h (0 Bft) N-NO 22 0 min 7,9 C 0,0 km/h (0 Bft)
26.05.2016 04:20 10,7 C 10,6 C 82 % 1015,8 hPa 0,0 mm 0,0 km/h (0 Bft) N-NO 22 0 min 7,8 C 0,0 km/h (0 Bft)
26.05.2016 04:25 10,7 C 10,7 C 82 % 1015,8 hPa 0,0 mm 0,0 km/h (0 Bft) N-NW 337 0 min 7,8 C 0,0 km/h (0 Bft)
26.05.2016 04:30 10,7 C 10,6 C 82 % 1015,8 hPa 0,0 mm 0,0 km/h (0 Bft) O-NO 67 0 min 7,8 C 0,0 km/h (0 Bft)
26.05.2016 04:35 10,7 C 10,7 C 82 % 1015,8 hPa 0,0 mm 0,0 km/h (0 Bft) N 360 0 min 7,8 C 0,0 km/h (0 Bft)
26.05.2016 04:40 10,7 C 10,5 C 82 % 1015,8 hPa 0,0 mm 0,0 km/h (0 Bft) W-SW 247 0 min 7,8 C 0,0 km/h (0 Bft)
26.05.2016 04:45 10,7 C 10,5 C 82 % 1015,8 hPa 0,0 mm 0,0 km/h (0 Bft) NW 315 0 min 7,8 C 0,0 km/h (0 Bft)
26.05.2016 04:50 10,7 C 10,6 C 82 % 1016,0 hPa 0,0 mm 0,0 km/h (0 Bft) NO 45 0 min 7,8 C 0,0 km/h (0 Bft)
26.05.2016 04:55 10,7 C 10,6 C 82 % 1016,0 hPa 0,0 mm 0,0 km/h (0 Bft) N-NO 22 0 min 7,8 C 0,0 km/h (0 Bft)
26.05.2016 05:00 10,7 C 10,6 C 82 % 1016,0 hPa 0,0 mm 0,0 km/h (0 Bft) SO 135 0 min 7,8 C 0,0 km/h (0 Bft)
26.05.2016 05:05 10,7 C 10,5 C 82 % 1016,0 hPa 0,0 mm 0,0 km/h (0 Bft) SO 135 0 min 7,8 C 0,0 km/h (0 Bft)
26.05.2016 05:10 10,6 C 10,6 C 82 % 1016,0 hPa 0,0 mm 0,0 km/h (0 Bft) N 360 0 min 7,7 C 0,0 km/h (0 Bft)
26.05.2016 05:15 10,6 C 10,6 C 82 % 1016,0 hPa 0,0 mm 0,0 km/h (0 Bft) N 360 0 min 7,7 C 0,0 km/h (0 Bft)
26.05.2016 05:20 10,5 C 10,3 C 82 % 1016,0 hPa 0,0 mm 0,0 km/h (0 Bft) NW 315 0 min 7,6 C 0,0 km/h (0 Bft)
26.05.2016 05:25 10,5 C 10,2 C 82 % 1016,0 hPa 0,0 mm 0,0 km/h (0 Bft) O-NO 67 0 min 7,6 C 0,0 km/h (0 Bft)
26.05.2016 05:30 10,3 C 9,9 C 82 % 1015,8 hPa 0,0 mm 0,0 km/h (0 Bft) N-NO 22 0 min 7,4 C 0,0 km/h (0 Bft)
26.05.2016 05:35 10,3 C 9,8 C 82 % 1015,8 hPa 0,0 mm 0,0 km/h (0 Bft) N-NO 22 0 min 7,4 C 0,0 km/h (0 Bft)
26.05.2016 05:40 10,1 C 9,7 C 82 % 1015,8 hPa 0,0 mm 0,0 km/h (0 Bft) N-NW 337 0 min 7,2 C 0,0 km/h (0 Bft)
26.05.2016 05:45 10,1 C 9,7 C 82 % 1015,8 hPa 0,0 mm 0,0 km/h (0 Bft) SW 225 0 min 7,2 C 0,0 km/h (0 Bft)
26.05.2016 05:50 10,1 C 9,7 C 82 % 1016,0 hPa 0,0 mm 0,0 km/h (0 Bft) NW 315 0 min 7,2 C 0,0 km/h (0 Bft)
26.05.2016 05:55 10,2 C 9,8 C 82 % 1016,0 hPa 0,0 mm 0,0 km/h (0 Bft) N-NW 337 0 min 7,3 C 0,0 km/h (0 Bft)
26.05.2016 05:58 10,2 C 9,9 C 82 % 1016,0 hPa 0,0 mm 0,0 km/h (0 Bft) W-NW 292 0 min 7,3 C 0,0 km/h (0 Bft)
26.05.2016 06:00 10,2 C 9,9 C 82 % 1016,0 hPa 0,0 mm 0,0 km/h (0 Bft) W-NW 292 0 min 7,3 C 0,0 km/h (0 Bft)
26.05.2016 06:05 10,2 C 10,0 C 82 % 1016,0 hPa 0,0 mm 0,0 km/h (0 Bft) NW 315 0 min 7,3 C 0,0 km/h (0 Bft)
26.05.2016 06:10 10,3 C 10,4 C 82 % 1016,1 hPa 0,0 mm 0,0 km/h (0 Bft) W-NW 292 0 min 7,4 C 0,0 km/h (0 Bft)
26.05.2016 06:15 10,6 C 11,0 C 83 % 1016,1 hPa 0,0 mm 0,0 km/h (0 Bft) O-NO 67 0 min 7,8 C 0,0 km/h (0 Bft)
26.05.2016 06:20 10,8 C 12,2 C 82 % 1016,1 hPa 0,0 mm 0,0 km/h (0 Bft) O-NO 67 0 min 7,9 C 0,0 km/h (0 Bft)
26.05.2016 06:25 10,8 C 12,0 C 82 % 1016,1 hPa 0,0 mm 0,0 km/h (0 Bft) NW 315 0 min 7,9 C 0,0 km/h (0 Bft)
26.05.2016 06:30 10,8 C 11,7 C 82 % 1016,1 hPa 0,0 mm 0,0 km/h (0 Bft) W-NW 292 0 min 7,9 C 0,0 km/h (0 Bft)
26.05.2016 06:35 10,8 C 11,7 C 82 % 1016,1 hPa 0,0 mm 0,0 km/h (0 Bft) S 180 0 min 7,9 C 0,0 km/h (0 Bft)
26.05.2016 06:40 10,9 C 11,9 C 82 % 1016,1 hPa 0,0 mm 0,0 km/h (0 Bft) NW 315 0 min 7,9 C 0,0 km/h (0 Bft)
26.05.2016 06:45 11,0 C 12,1 C 82 % 1016,1 hPa 0,0 mm 0,0 km/h (0 Bft) S 180 0 min 8,0 C 0,0 km/h (0 Bft)
26.05.2016 06:50 11,2 C 12,7 C 82 % 1016,4 hPa 0,0 mm 0,0 km/h (0 Bft) S-SO 157 0 min 8,2 C 0,0 km/h (0 Bft)
26.05.2016 06:55 11,6 C 13,4 C 82 % 1016,4 hPa 0,0 mm 0,0 km/h (0 Bft) NW 315 0 min 8,6 C 0,0 km/h (0 Bft)
26.05.2016 07:00 11,6 C 13,6 C 82 % 1016,4 hPa 0,0 mm 0,0 km/h (0 Bft) O-NO 67 0 min 8,6 C 0,0 km/h (0 Bft)
26.05.2016 07:05 11,6 C 13,6 C 82 % 1016,4 hPa 0,0 mm 0,0 km/h (0 Bft) NO 45 0 min 8,6 C 0,0 km/h (0 Bft)
26.05.2016 07:10 11,8 C 13,4 C 82 % 1016,5 hPa 0,0 mm 0,0 km/h (0 Bft) N-NO 22 0 min 8,8 C 0,0 km/h (0 Bft)
26.05.2016 07:15 12,1 C 13,8 C 81 % 1016,5 hPa 0,0 mm 0,0 km/h (0 Bft) NO 45 0 min 8,9 C 0,0 km/h (0 Bft)
26.05.2016 07:20 13,7 C 17,2 C 80 % 1016,5 hPa 0,0 mm 0,0 km/h (0 Bft) N-NW 337 5 min 10,3 C 0,0 km/h (0 Bft)
26.05.2016 07:25 14,5 C 18,9 C 79 % 1016,5 hPa 0,0 mm 0,0 km/h (0 Bft) N-NW 337 5 min 10,9 C 0,0 km/h (0 Bft)
26.05.2016 07:30 14,6 C 21,0 C 78 % 1016,6 hPa 0,0 mm 0,0 km/h (0 Bft) O-NO 67 5 min 10,8 C 0,0 km/h (0 Bft)
26.05.2016 07:35 14,6 C 22,0 C 77 % 1016,6 hPa 0,0 mm 0,0 km/h (0 Bft) O-NO 67 5 min 10,6 C 0,0 km/h (0 Bft)
26.05.2016 07:40 14,8 C 22,9 C 76 % 1016,6 hPa 0,0 mm 0,0 km/h (0 Bft) NO 45 5 min 10,6 C 0,0 km/h (0 Bft)
26.05.2016 07:45 15,1 C 23,1 C 75 % 1016,6 hPa 0,0 mm 0,0 km/h (0 Bft) O-NO 67 5 min 10,7 C 0,0 km/h (0 Bft)
26.05.2016 07:50 15,8 C 23,8 C 74 % 1016,7 hPa 0,0 mm 0,0 km/h (0 Bft) NO 45 5 min 11,2 C 0,0 km/h (0 Bft)
26.05.2016 07:55 16,2 C 24,1 C 71 % 1016,7 hPa 0,0 mm 0,0 km/h (0 Bft) O-NO 67 5 min 10,9 C 0,0 km/h (0 Bft)
26.05.2016 08:00 16,4 C 24,0 C 70 % 1016,7 hPa 0,0 mm 0,0 km/h (0 Bft) NW 315 5 min 10,9 C 0,0 km/h (0 Bft)
26.05.2016 08:05 16,8 C 24,4 C 70 % 1016,7 hPa 0,0 mm 0,0 km/h (0 Bft) O-NO 67 5 min 11,3 C 0,0 km/h (0 Bft)
26.05.2016 08:10 17,2 C 25,5 C 69 % 1016,8 hPa 0,0 mm 0,0 km/h (0 Bft) N-NO 22 5 min 11,5 C 0,0 km/h (0 Bft)
26.05.2016 08:15 17,4 C 26,4 C 68 % 1016,8 hPa 0,0 mm 0,0 km/h (0 Bft) NO 45 5 min 11,4 C 0,0 km/h (0 Bft)
26.05.2016 08:20 17,6 C 27,2 C 67 % 1016,8 hPa 0,0 mm 0,0 km/h (0 Bft) N-NO 22 5 min 11,4 C 0,0 km/h (0 Bft)
26.05.2016 08:25 18,0 C 27,7 C 66 % 1016,8 hPa 0,0 mm 0,0 km/h (0 Bft) N-NO 22 5 min 11,6 C 0,0 km/h (0 Bft)
26.05.2016 08:30 18,6 C 28,1 C 65 % 1016,8 hPa 0,0 mm 0,0 km/h (0 Bft) N 360 5 min 11,9 C 0,0 km/h (0 Bft)
26.05.2016 08:35 18,9 C 28,3 C 65 % 1016,8 hPa 0,0 mm 0,0 km/h (0 Bft) N-NO 22 5 min 12,2 C 0,0 km/h (0 Bft)
26.05.2016 08:40 19,1 C 27,4 C 61 % 1016,8 hPa 0,0 mm 1,5 km/h (1 Bft) O-NO 67 5 min 11,4 C 0,0 km/h (0 Bft)
26.05.2016 08:45 18,9 C 27,3 C 59 % 1016,8 hPa 0,0 mm 1,5 km/h (1 Bft) W-NW 292 5 min 10,7 C 0,0 km/h (0 Bft)
26.05.2016 08:50 19,6 C 27,5 C 59 % 1017,6 hPa 0,0 mm 0,6 km/h (0 Bft) N-NW 337 5 min 11,4 C 0,0 km/h (0 Bft)
26.05.2016 08:55 19,3 C 27,1 C 57 % 1017,6 hPa 0,0 mm 1,2 km/h (1 Bft) O-NO 67 5 min 10,6 C 4,5 km/h (1 Bft)
26.05.2016 08:58 19,9 C 27,3 C 58 % 1017,6 hPa 0,0 mm 1,8 km/h (1 Bft) N-NW 337 3 min 11,4 C 6,9 km/h (2 Bft)
26.05.2016 09:01 19,9 C 27,3 C 58 % 1017,6 hPa 0,0 mm 1,8 km/h (1 Bft) N-NW 337 3 min 11,4 C 6,9 km/h (2 Bft)
26.05.2016 09:05 19,9 C 27,3 C 57 % 1017,6 hPa 0,0 mm 3,3 km/h (1 Bft) N-NW 337 4 min 11,1 C 0,0 km/h (0 Bft)
26.05.2016 09:10 18,9 C 25,7 C 56 % 1017,4 hPa 0,0 mm 4,2 km/h (1 Bft) NW 315 5 min 9,9 C 9,8 km/h (2 Bft)
26.05.2016 09:15 19,3 C 25,0 C 56 % 1017,4 hPa 0,0 mm 2,4 km/h (1 Bft) NO 45 5 min 10,3 C 9,2 km/h (2 Bft)
26.05.2016 09:20 19,3 C 25,0 C 55 % 1017,4 hPa 0,0 mm 3,0 km/h (1 Bft) NW 315 5 min 10,0 C 10,4 km/h (2 Bft)
26.05.2016 09:25 19,5 C 25,3 C 54 % 1017,4 hPa 0,0 mm 5,4 km/h (1 Bft) N-NO 22 5 min 9,9 C 6,9 km/h (2 Bft)
26.05.2016 09:30 19,9 C 25,6 C 54 % 1017,8 hPa 0,0 mm 6,6 km/h (2 Bft) N-NW 337 5 min 10,3 C 14,0 km/h (3 Bft)
26.05.2016 09:35 19,9 C 25,5 C 51 % 1017,8 hPa 0,0 mm 7,2 km/h (2 Bft) NO 45 5 min 9,5 C 8,3 km/h (2 Bft)
26.05.2016 09:40 20,2 C 25,9 C 54 % 1017,8 hPa 0,0 mm 6,9 km/h (2 Bft) N-NW 337 5 min 10,6 C 17,3 km/h (3 Bft)
26.05.2016 09:45 20,1 C 25,8 C 52 % 1017,8 hPa 0,0 mm 6,0 km/h (2 Bft) NO 45 5 min 9,9 C 9,2 km/h (2 Bft)
26.05.2016 09:50 20,0 C 26,0 C 53 % 1017,9 hPa 0,0 mm 5,7 km/h (1 Bft) N-NW 337 5 min 10,1 C 9,5 km/h (2 Bft)
26.05.2016 09:55 20,0 C 25,8 C 51 % 1017,9 hPa 0,0 mm 6,3 km/h (2 Bft) NO 45 5 min 9,6 C 11,9 km/h (2 Bft)
26.05.2016 10:00 19,9 C 25,7 C 51 % 1017,9 hPa 0,0 mm 6,9 km/h (2 Bft) NO 45 5 min 9,5 C 0,0 km/h (0 Bft)
26.05.2016 10:05 20,4 C 26,2 C 51 % 1017,9 hPa 0,0 mm 5,1 km/h (1 Bft) O-NO 67 5 min 9,9 C 6,9 km/h (2 Bft)
26.05.2016 10:10 20,5 C 26,3 C 51 % 1018,2 hPa 0,0 mm 3,9 km/h (1 Bft) N-NO 22 5 min 10,0 C 8,3 km/h (2 Bft)
26.05.2016 10:15 20,7 C 26,6 C 50 % 1018,2 hPa 0,0 mm 4,8 km/h (1 Bft) O-NO 67 5 min 9,9 C 0,0 km/h (0 Bft)
26.05.2016 10:20 20,7 C 27,0 C 49 % 1018,2 hPa 0,0 mm 3,6 km/h (1 Bft) O-NO 67 5 min 9,6 C 3,3 km/h (1 Bft)
26.05.2016 10:25 21,1 C 27,2 C 51 % 1018,2 hPa 0,0 mm 2,7 km/h (1 Bft) NW 315 5 min 10,6 C 11,3 km/h (2 Bft)
26.05.2016 10:30 21,1 C 27,1 C 49 % 1018,6 hPa 0,0 mm 4,5 km/h (1 Bft) N-NW 337 5 min 10,0 C 5,4 km/h (1 Bft)
26.05.2016 10:35 20,8 C 26,8 C 49 % 1018,6 hPa 0,0 mm 6,3 km/h (2 Bft) SW 225 5 min 9,7 C 3,9 km/h (1 Bft)
26.05.2016 10:40 20,7 C 26,5 C 48 % 1018,6 hPa 0,0 mm 6,3 km/h (2 Bft) O 90 5 min 9,3 C 4,2 km/h (1 Bft)
26.05.2016 10:45 20,8 C 26,2 C 47 % 1018,6 hPa 0,0 mm 6,3 km/h (2 Bft) N-NO 22 5 min 9,1 C 7,7 km/h (2 Bft)
26.05.2016 10:50 20,4 C 25,8 C 46 % 1018,8 hPa 0,0 mm 7,2 km/h (2 Bft) O 90 5 min 8,4 C 6,9 km/h (2 Bft)
26.05.2016 10:55 20,3 C 25,6 C 47 % 1018,8 hPa 0,0 mm 8,0 km/h (2 Bft) N-NO 22 5 min 8,6 C 16,4 km/h (3 Bft)
26.05.2016 11:00 20,6 C 25,6 C 46 % 1018,8 hPa 0,0 mm 8,3 km/h (2 Bft) NW 315 5 min 8,6 C 11,9 km/h (2 Bft)
26.05.2016 11:05 20,9 C 26,0 C 48 % 1018,8 hPa 0,0 mm 6,9 km/h (2 Bft) W-NW 292 5 min 9,5 C 0,0 km/h (0 Bft)
26.05.2016 11:10 21,0 C 26,2 C 49 % 1018,9 hPa 0,0 mm 6,9 km/h (2 Bft) N-NO 22 5 min 9,9 C 21,5 km/h (4 Bft)
26.05.2016 11:15 20,6 C 25,6 C 49 % 1018,9 hPa 0,0 mm 7,5 km/h (2 Bft) NO 45 5 min 9,5 C 9,5 km/h (2 Bft)
26.05.2016 11:20 21,3 C 26,3 C 49 % 1018,9 hPa 0,0 mm 6,3 km/h (2 Bft) N-NW 337 5 min 10,1 C 12,5 km/h (3 Bft)
26.05.2016 11:25 21,6 C 26,9 C 51 % 1018,9 hPa 0,0 mm 3,6 km/h (1 Bft) NW 315 5 min 11,0 C 11,3 km/h (2 Bft)
26.05.2016 11:30 21,5 C 26,7 C 49 % 1018,9 hPa 0,0 mm 7,5 km/h (2 Bft) NO 45 5 min 10,3 C 16,7 km/h (3 Bft)
26.05.2016 11:35 21,2 C 25,9 C 49 % 1018,9 hPa 0,0 mm 9,8 km/h (2 Bft) NW 315 5 min 10,1 C 10,1 km/h (2 Bft)
26.05.2016 11:40 21,1 C 26,1 C 49 % 1018,9 hPa 0,0 mm 7,7 km/h (2 Bft) N-NO 22 5 min 10,0 C 10,1 km/h (2 Bft)
26.05.2016 11:45 21,1 C 25,8 C 49 % 1018,9 hPa 0,0 mm 6,9 km/h (2 Bft) N-NW 337 5 min 10,0 C 13,7 km/h (3 Bft)
26.05.2016 11:50 21,1 C 25,8 C 52 % 1018,9 hPa 0,0 mm 8,6 km/h (2 Bft) N-NO 22 5 min 10,9 C 6,9 km/h (2 Bft)
26.05.2016 11:55 21,4 C 26,2 C 49 % 1018,9 hPa 0,0 mm 6,9 km/h (2 Bft) NO 45 5 min 10,2 C 0,0 km/h (0 Bft)
26.05.2016 12:00 21,6 C 26,9 C 49 % 1018,9 hPa 0,0 mm 4,5 km/h (1 Bft) N-NO 22 5 min 10,4 C 9,5 km/h (2 Bft)
26.05.2016 12:02 21,6 C 26,9 C 49 % 1018,9 hPa 0,0 mm 4,5 km/h (1 Bft) N-NO 22 2 min 10,4 C 9,5 km/h (2 Bft)
26.05.2016 12:05 21,6 C 27,0 C 48 % 1018,9 hPa 0,0 mm 3,6 km/h (1 Bft) NW 315 3 min 10,1 C 5,7 km/h (1 Bft)
26.05.2016 12:10 22,1 C 27,9 C 48 % 1018,8 hPa 0,0 mm 4,2 km/h (1 Bft) O-NO 67 5 min 10,6 C 21,2 km/h (4 Bft)
26.05.2016 12:15 21,4 C 27,3 C 49 % 1018,8 hPa 0,0 mm 5,4 km/h (1 Bft) NO 45 5 min 10,2 C 13,7 km/h (3 Bft)
26.05.2016 12:20 21,5 C 26,9 C 48 % 1018,8 hPa 0,0 mm 8,6 km/h (2 Bft) NO 45 5 min 10,0 C 12,2 km/h (2 Bft)
26.05.2016 12:25 21,4 C 26,8 C 48 % 1018,8 hPa 0,0 mm 7,2 km/h (2 Bft) N-NO 22 5 min 9,9 C 5,7 km/h (1 Bft)
26.05.2016 12:30 21,7 C 27,1 C 47 % 1018,7 hPa 0,0 mm 7,2 km/h (2 Bft) N-NO 22 5 min 9,9 C 16,4 km/h (3 Bft)
26.05.2016 12:35 21,3 C 26,6 C 47 % 1018,7 hPa 0,0 mm 8,3 km/h (2 Bft) N-NO 22 5 min 9,5 C 5,1 km/h (1 Bft)
26.05.2016 12:40 21,7 C 27,1 C 48 % 1018,7 hPa 0,0 mm 7,2 km/h (2 Bft) NO 45 5 min 10,2 C 5,4 km/h (1 Bft)
26.05.2016 12:45 22,0 C 27,6 C 48 % 1018,7 hPa 0,0 mm 4,5 km/h (1 Bft) N-NO 22 5 min 10,5 C 3,6 km/h (1 Bft)
26.05.2016 12:50 22,1 C 27,7 C 47 % 1018,6 hPa 0,0 mm 7,5 km/h (2 Bft) NO 45 5 min 10,3 C 14,3 km/h (3 Bft)
26.05.2016 12:55 21,8 C 27,4 C 48 % 1018,6 hPa 0,0 mm 9,2 km/h (2 Bft) O-SO 112 5 min 10,3 C 6,0 km/h (2 Bft)
26.05.2016 13:00 21,9 C 27,2 C 48 % 1018,6 hPa 0,0 mm 7,2 km/h (2 Bft) NW 315 5 min 10,4 C 0,0 km/h (0 Bft)
26.05.2016 13:05 21,9 C 26,9 C 48 % 1018,6 hPa 0,0 mm 6,9 km/h (2 Bft) W-SW 247 5 min 10,4 C 8,9 km/h (2 Bft)
26.05.2016 13:10 22,2 C 27,3 C 49 % 1018,4 hPa 0,0 mm 8,0 km/h (2 Bft) N-NO 22 5 min 11,0 C 8,9 km/h (2 Bft)
26.05.2016 13:15 22,1 C 27,2 C 48 % 1018,4 hPa 0,0 mm 10,4 km/h (2 Bft) NO 45 5 min 10,6 C 17,9 km/h (3 Bft)
26.05.2016 13:20 22,1 C 27,1 C 49 % 1018,4 hPa 0,0 mm 11,3 km/h (2 Bft) N-NW 337 5 min 10,9 C 23,8 km/h (4 Bft)
26.05.2016 13:25 22,1 C 26,8 C 49 % 1018,4 hPa 0,0 mm 10,4 km/h (2 Bft) N-NW 337 5 min 10,9 C 14,6 km/h (3 Bft)
26.05.2016 13:30 22,4 C 27,1 C 49 % 1018,1 hPa 0,0 mm 9,8 km/h (2 Bft) NW 315 5 min 11,2 C 9,2 km/h (2 Bft)
26.05.2016 13:35 22,1 C 27,2 C 49 % 1018,1 hPa 0,0 mm 8,9 km/h (2 Bft) N-NO 22 5 min 10,9 C 13,1 km/h (3 Bft)
26.05.2016 13:40 21,2 C 25,0 C 50 % 1018,1 hPa 0,0 mm 6,3 km/h (2 Bft) NW 315 5 min 10,4 C 6,3 km/h (2 Bft)
26.05.2016 13:45 21,6 C 24,6 C 50 % 1018,1 hPa 0,0 mm 6,3 km/h (2 Bft) N-NO 22 0 min 10,7 C 21,2 km/h (4 Bft)
26.05.2016 13:50 22,1 C 25,8 C 48 % 1018,0 hPa 0,0 mm 11,0 km/h (2 Bft) NO 45 5 min 10,6 C 14,3 km/h (3 Bft)
26.05.2016 13:55 21,8 C 25,6 C 48 % 1018,0 hPa 0,0 mm 11,9 km/h (2 Bft) NO 45 5 min 10,3 C 14,9 km/h (3 Bft)
26.05.2016 14:00 21,6 C 25,3 C 49 % 1018,0 hPa 0,0 mm 8,9 km/h (2 Bft) NO 45 5 min 10,4 C 11,9 km/h (2 Bft)
26.05.2016 14:05 22,0 C 25,9 C 48 % 1018,0 hPa 0,0 mm 8,0 km/h (2 Bft) NO 45 5 min 10,5 C 9,2 km/h (2 Bft)
26.05.2016 14:10 22,1 C 27,0 C 47 % 1017,8 hPa 0,0 mm 8,0 km/h (2 Bft) N-NO 22 5 min 10,3 C 14,9 km/h (3 Bft)
26.05.2016 14:15 22,1 C 27,2 C 47 % 1017,8 hPa 0,0 mm 8,0 km/h (2 Bft) O-NO 67 5 min 10,3 C 0,0 km/h (0 Bft)
26.05.2016 14:20 22,4 C 28,1 C 48 % 1017,8 hPa 0,0 mm 6,0 km/h (2 Bft) NW 315 5 min 10,8 C 0,0 km/h (0 Bft)
26.05.2016 14:25 22,5 C 28,9 C 47 % 1017,8 hPa 0,0 mm 5,1 km/h (1 Bft) N-NO 22 5 min 10,6 C 9,2 km/h (2 Bft)
26.05.2016 14:30 22,8 C 29,6 C 48 % 1017,6 hPa 0,0 mm 4,8 km/h (1 Bft) NW 315 5 min 11,2 C 14,0 km/h (3 Bft)
26.05.2016 14:35 22,6 C 29,3 C 47 % 1017,6 hPa 0,0 mm 5,4 km/h (1 Bft) N-NO 22 5 min 10,7 C 10,1 km/h (2 Bft)
26.05.2016 14:40 21,6 C 26,0 C 47 % 1017,6 hPa 0,0 mm 9,2 km/h (2 Bft) NO 45 5 min 9,8 C 6,6 km/h (2 Bft)
26.05.2016 14:45 21,2 C 24,9 C 48 % 1017,6 hPa 0,0 mm 8,6 km/h (2 Bft) NO 45 5 min 9,7 C 6,9 km/h (2 Bft)
26.05.2016 14:50 21,1 C 23,7 C 49 % 1017,4 hPa 0,0 mm 6,3 km/h (2 Bft) O-SO 112 5 min 10,0 C 4,5 km/h (1 Bft)
26.05.2016 14:55 20,9 C 23,3 C 49 % 1017,4 hPa 0,0 mm 5,4 km/h (1 Bft) N-NO 22 0 min 9,8 C 4,2 km/h (1 Bft)
26.05.2016 15:00 21,3 C 23,6 C 49 % 1017,4 hPa 0,0 mm 2,4 km/h (1 Bft) NO 45 0 min 10,1 C 0,0 km/h (0 Bft)
26.05.2016 15:03 21,3 C 23,6 C 49 % 1017,4 hPa 0,0 mm 2,4 km/h (1 Bft) NO 45 0 min 10,1 C 0,0 km/h (0 Bft)
26.05.2016 15:05 21,5 C 24,6 C 48 % 1017,4 hPa 0,0 mm 3,6 km/h (1 Bft) NO 45 2 min 10,0 C 9,8 km/h (2 Bft)
26.05.2016 15:10 22,1 C 26,0 C 47 % 1017,2 hPa 0,0 mm 7,7 km/h (2 Bft) NW 315 5 min 10,3 C 12,2 km/h (2 Bft)
26.05.2016 15:15 21,9 C 26,0 C 47 % 1017,2 hPa 0,0 mm 10,1 km/h (2 Bft) NO 45 5 min 10,1 C 11,9 km/h (2 Bft)
26.05.2016 15:20 21,8 C 25,3 C 48 % 1017,2 hPa 0,0 mm 11,0 km/h (2 Bft) N-NW 337 5 min 10,3 C 12,5 km/h (3 Bft)
26.05.2016 15:25 21,9 C 25,8 C 48 % 1017,2 hPa 0,0 mm 9,5 km/h (2 Bft) N-NO 22 5 min 10,4 C 8,3 km/h (2 Bft)
26.05.2016 15:30 21,1 C 24,5 C 48 % 1017,2 hPa 0,0 mm 6,3 km/h (2 Bft) O-NO 67 5 min 9,7 C 3,3 km/h (1 Bft)
26.05.2016 15:35 21,0 C 23,8 C 49 % 1017,2 hPa 0,0 mm 4,2 km/h (1 Bft) O-NO 67 5 min 9,9 C 0,0 km/h (0 Bft)
26.05.2016 15:40 21,2 C 24,3 C 49 % 1017,2 hPa 0,0 mm 1,2 km/h (1 Bft) S 180 0 min 10,1 C 0,0 km/h (0 Bft)
26.05.2016 15:45 21,7 C 25,3 C 49 % 1017,2 hPa 0,0 mm 0,0 km/h (0 Bft) S 180 0 min 10,5 C 0,0 km/h (0 Bft)
26.05.2016 15:50 21,5 C 25,7 C 47 % 1017,0 hPa 0,0 mm 1,8 km/h (1 Bft) W 270 5 min 9,7 C 0,0 km/h (0 Bft)
26.05.2016 15:55 21,9 C 25,7 C 47 % 1017,0 hPa 0,0 mm 1,8 km/h (1 Bft) W 270 0 min 10,1 C 0,0 km/h (0 Bft)
26.05.2016 16:00 22,4 C 28,0 C 47 % 1017,0 hPa 0,0 mm 1,8 km/h (1 Bft) W-SW 247 5 min 10,5 C 0,0 km/h (0 Bft)
26.05.2016 16:05 22,5 C 29,3 C 47 % 1017,0 hPa 0,0 mm 3,0 km/h (1 Bft) N-NW 337 5 min 10,6 C 12,2 km/h (2 Bft)
26.05.2016 16:10 22,3 C 29,1 C 46 % 1016,8 hPa 0,0 mm 7,2 km/h (2 Bft) N-NW 337 5 min 10,1 C 15,2 km/h (3 Bft)
26.05.2016 16:15 22,1 C 28,6 C 46 % 1016,8 hPa 0,0 mm 11,6 km/h (2 Bft) NO 45 5 min 9,9 C 13,1 km/h (3 Bft)
26.05.2016 16:20 21,9 C 27,0 C 47 % 1016,8 hPa 0,0 mm 11,6 km/h (2 Bft) NO 45 5 min 10,1 C 10,4 km/h (2 Bft)
26.05.2016 16:25 21,7 C 25,7 C 47 % 1016,8 hPa 0,0 mm 10,4 km/h (2 Bft) NO 45 5 min 9,9 C 14,9 km/h (3 Bft)
26.05.2016 16:30 21,5 C 26,2 C 47 % 1016,6 hPa 0,0 mm 8,0 km/h (2 Bft) NO 45 5 min 9,7 C 11,6 km/h (2 Bft)
26.05.2016 16:35 21,5 C 26,7 C 47 % 1016,6 hPa 0,0 mm 7,5 km/h (2 Bft) O-NO 67 5 min 9,7 C 7,2 km/h (2 Bft)
26.05.2016 16:40 21,6 C 27,7 C 47 % 1016,6 hPa 0,0 mm 6,9 km/h (2 Bft) O-NO 67 5 min 9,8 C 11,3 km/h (2 Bft)
26.05.2016 16:45 21,6 C 26,8 C 47 % 1016,6 hPa 0,0 mm 6,0 km/h (2 Bft) O 90 5 min 9,8 C 5,1 km/h (1 Bft)
26.05.2016 16:50 21,5 C 25,3 C 48 % 1016,5 hPa 0,0 mm 5,7 km/h (1 Bft) S-SW 202 5 min 10,0 C 6,9 km/h (2 Bft)
26.05.2016 16:55 21,6 C 24,6 C 48 % 1016,5 hPa 0,0 mm 6,9 km/h (2 Bft) N-NO 22 5 min 10,1 C 9,5 km/h (2 Bft)
26.05.2016 17:00 21,6 C 24,1 C 47 % 1016,5 hPa 0,0 mm 5,4 km/h (1 Bft) SW 225 0 min 9,8 C 0,0 km/h (0 Bft)
26.05.2016 17:05 21,6 C 24,0 C 47 % 1016,5 hPa 0,0 mm 3,6 km/h (1 Bft) S-SO 157 0 min 9,8 C 7,7 km/h (2 Bft)
26.05.2016 17:10 21,7 C 23,9 C 48 % 1016,4 hPa 0,0 mm 3,6 km/h (1 Bft) O-NO 67 0 min 10,2 C 14,0 km/h (3 Bft)
26.05.2016 17:15 21,7 C 23,8 C 46 % 1016,4 hPa 0,0 mm 4,8 km/h (1 Bft) N-NO 22 0 min 9,6 C 15,8 km/h (3 Bft)
26.05.2016 17:20 21,8 C 23,6 C 46 % 1016,4 hPa 0,0 mm 8,0 km/h (2 Bft) N-NW 337 0 min 9,7 C 8,3 km/h (2 Bft)
26.05.2016 17:25 21,7 C 23,3 C 46 % 1016,4 hPa 0,0 mm 8,0 km/h (2 Bft) NO 45 0 min 9,6 C 9,2 km/h (2 Bft)
26.05.2016 17:30 21,5 C 22,9 C 47 % 1016,3 hPa 0,0 mm 6,9 km/h (2 Bft) NO 45 0 min 9,7 C 3,3 km/h (1 Bft)
26.05.2016 17:35 21,4 C 22,9 C 48 % 1016,3 hPa 0,0 mm 5,1 km/h (1 Bft) O-SO 112 0 min 9,9 C 3,3 km/h (1 Bft)
26.05.2016 17:40 21,5 C 23,1 C 47 % 1016,3 hPa 0,0 mm 3,6 km/h (1 Bft) S 180 0 min 9,7 C 4,2 km/h (1 Bft)
26.05.2016 17:45 21,6 C 23,3 C 47 % 1016,3 hPa 0,0 mm 4,8 km/h (1 Bft) O-NO 67 0 min 9,8 C 11,9 km/h (2 Bft)
26.05.2016 17:50 21,6 C 23,3 C 47 % 1016,2 hPa 0,0 mm 5,7 km/h (1 Bft) O-NO 67 0 min 9,8 C 12,8 km/h (3 Bft)
26.05.2016 17:55 21,6 C 23,1 C 47 % 1016,2 hPa 0,0 mm 9,2 km/h (2 Bft) N-NW 337 0 min 9,8 C 8,3 km/h (2 Bft)
26.05.2016 18:00 21,5 C 23,0 C 47 % 1016,2 hPa 0,0 mm 8,3 km/h (2 Bft) N-NO 22 0 min 9,7 C 7,5 km/h (2 Bft)
26.05.2016 18:03 21,5 C 22,9 C 47 % 1016,2 hPa 0,0 mm 7,7 km/h (2 Bft) N-NO 22 0 min 9,7 C 18,2 km/h (3 Bft)
26.05.2016 18:04 21,5 C 22,9 C 47 % 1016,2 hPa 0,0 mm 7,7 km/h (2 Bft) N-NO 22 0 min 9,7 C 18,2 km/h (3 Bft)
26.05.2016 18:05 21,5 C 22,9 C 47 % 1016,2 hPa 0,0 mm 7,7 km/h (2 Bft) N-NO 22 0 min 9,7 C 18,2 km/h (3 Bft)
26.05.2016 18:10 21,3 C 22,7 C 46 % 1016,1 hPa 0,0 mm 9,5 km/h (2 Bft) NW 315 0 min 9,2 C 6,3 km/h (2 Bft)
26.05.2016 18:15 21,3 C 22,5 C 47 % 1016,1 hPa 0,0 mm 8,3 km/h (2 Bft) NO 45 0 min 9,5 C 8,9 km/h (2 Bft)
26.05.2016 18:20 21,3 C 22,3 C 46 % 1016,1 hPa 0,0 mm 8,6 km/h (2 Bft) N-NO 22 0 min 9,2 C 16,1 km/h (3 Bft)
26.05.2016 18:25 21,2 C 22,1 C 46 % 1016,1 hPa 0,0 mm 8,3 km/h (2 Bft) N-NO 22 0 min 9,1 C 6,0 km/h (2 Bft)
26.05.2016 18:30 21,1 C 21,8 C 48 % 1016,2 hPa 0,0 mm 7,2 km/h (2 Bft) NO 45 0 min 9,7 C 0,0 km/h (0 Bft)
26.05.2016 18:35 20,9 C 21,6 C 49 % 1016,2 hPa 0,0 mm 3,9 km/h (1 Bft) N-NO 22 0 min 9,8 C 0,0 km/h (0 Bft)
26.05.2016 18:40 20,5 C 21,2 C 49 % 1016,2 hPa 0,0 mm 0,3 km/h (0 Bft) O-SO 112 0 min 9,4 C 0,0 km/h (0 Bft)
26.05.2016 18:45 20,4 C 21,1 C 49 % 1016,2 hPa 0,0 mm 0,0 km/h (0 Bft) NO 45 0 min 9,3 C 0,0 km/h (0 Bft)
26.05.2016 18:50 20,7 C 22,3 C 49 % 1015,9 hPa 0,0 mm 2,1 km/h (1 Bft) N-NO 22 0 min 9,6 C 6,0 km/h (2 Bft)
26.05.2016 18:55 20,9 C 23,8 C 49 % 1015,9 hPa 0,0 mm 5,1 km/h (1 Bft) NW 315 5 min 9,8 C 9,8 km/h (2 Bft)
26.05.2016 19:00 21,1 C 24,9 C 48 % 1015,9 hPa 0,0 mm 7,7 km/h (2 Bft) N 360 5 min 9,7 C 5,1 km/h (1 Bft)
26.05.2016 19:05 21,1 C 25,3 C 48 % 1015,9 hPa 0,0 mm 7,5 km/h (2 Bft) N-NO 22 5 min 9,7 C 8,0 km/h (2 Bft)
26.05.2016 19:10 21,2 C 25,7 C 48 % 1016,0 hPa 0,0 mm 5,1 km/h (1 Bft) N-NO 22 5 min 9,7 C 10,7 km/h (2 Bft)
26.05.2016 19:15 21,1 C 25,6 C 48 % 1016,0 hPa 0,0 mm 3,9 km/h (1 Bft) O-NO 67 5 min 9,7 C 0,0 km/h (0 Bft)
26.05.2016 19:20 21,1 C 25,3 C 48 % 1016,0 hPa 0,0 mm 4,2 km/h (1 Bft) N-NO 22 5 min 9,7 C 10,4 km/h (2 Bft)
26.05.2016 19:25 21,1 C 25,3 C 47 % 1016,0 hPa 0,0 mm 5,4 km/h (1 Bft) N-NO 22 5 min 9,3 C 11,6 km/h (2 Bft)
26.05.2016 19:30 21,2 C 24,8 C 47 % 1015,9 hPa 0,0 mm 7,5 km/h (2 Bft) O-NO 67 5 min 9,4 C 3,3 km/h (1 Bft)
26.05.2016 19:35 21,2 C 24,7 C 48 % 1015,9 hPa 0,0 mm 7,5 km/h (2 Bft) N-NO 22 5 min 9,7 C 14,9 km/h (3 Bft)
26.05.2016 19:40 21,5 C 25,0 C 48 % 1015,9 hPa 0,0 mm 5,7 km/h (1 Bft) NO 45 5 min 10,0 C 9,8 km/h (2 Bft)
26.05.2016 19:45 21,4 C 25,0 C 47 % 1015,9 hPa 0,0 mm 6,6 km/h (2 Bft) S 180 5 min 9,6 C 3,0 km/h (1 Bft)
26.05.2016 19:50 21,3 C 24,6 C 47 % 1016,0 hPa 0,0 mm 8,9 km/h (2 Bft) O-NO 67 5 min 9,5 C 13,4 km/h (3 Bft)
26.05.2016 19:55 21,3 C 24,3 C 47 % 1016,0 hPa 0,0 mm 8,0 km/h (2 Bft) NO 45 5 min 9,5 C 9,5 km/h (2 Bft)
26.05.2016 20:00 21,1 C 23,8 C 47 % 1016,0 hPa 0,0 mm 7,7 km/h (2 Bft) N-NW 337 5 min 9,3 C 12,8 km/h (3 Bft)
26.05.2016 20:05 20,9 C 23,4 C 48 % 1016,0 hPa 0,0 mm 7,5 km/h (2 Bft) O-NO 67 5 min 9,5 C 6,0 km/h (2 Bft)
26.05.2016 20:10 20,6 C 23,0 C 49 % 1016,2 hPa 0,0 mm 6,0 km/h (2 Bft) N-NO 22 5 min 9,5 C 0,0 km/h (0 Bft)
26.05.2016 20:15 20,5 C 22,8 C 50 % 1016,2 hPa 0,0 mm 4,2 km/h (1 Bft) O-NO 67 5 min 9,7 C 3,3 km/h (1 Bft)
26.05.2016 20:20 20,2 C 22,3 C 51 % 1016,2 hPa 0,0 mm 3,6 km/h (1 Bft) N-NO 22 5 min 9,7 C 18,8 km/h (3 Bft)
26.05.2016 20:25 19,9 C 21,6 C 52 % 1016,2 hPa 0,0 mm 4,2 km/h (1 Bft) O-NO 67 0 min 9,7 C 0,0 km/h (0 Bft)
26.05.2016 20:30 19,6 C 20,9 C 53 % 1016,1 hPa 0,0 mm 2,4 km/h (1 Bft) S 180 0 min 9,8 C 0,0 km/h (0 Bft)
26.05.2016 20:35 19,2 C 20,6 C 54 % 1016,1 hPa 0,0 mm 0,3 km/h (0 Bft) S-SO 157 0 min 9,7 C 0,0 km/h (0 Bft)
26.05.2016 20:40 18,4 C 19,5 C 56 % 1016,1 hPa 0,0 mm 0,0 km/h (0 Bft) S-SO 157 0 min 9,5 C 0,0 km/h (0 Bft)
26.05.2016 20:45 18,2 C 18,6 C 57 % 1016,1 hPa 0,0 mm 0,0 km/h (0 Bft) O-SO 112 0 min 9,5 C 0,0 km/h (0 Bft)
26.05.2016 20:50 17,9 C 17,7 C 58 % 1016,0 hPa 0,0 mm 0,0 km/h (0 Bft) S-SO 157 0 min 9,5 C 0,0 km/h (0 Bft)
26.05.2016 20:55 17,7 C 17,4 C 58 % 1016,0 hPa 0,0 mm 0,0 km/h (0 Bft) S-SO 157 0 min 9,3 C 0,0 km/h (0 Bft)
26.05.2016 21:00 17,2 C 16,9 C 59 % 1016,0 hPa 0,0 mm 0,0 km/h (0 Bft) S-SO 157 0 min 9,1 C 0,0 km/h (0 Bft)
26.05.2016 21:03 17,0 C 16,8 C 60 % 1016,0 hPa 0,0 mm 0,0 km/h (0 Bft) SO 135 0 min 9,2 C 0,0 km/h (0 Bft)
26.05.2016 21:05 17,0 C 16,8 C 60 % 1016,0 hPa 0,0 mm 0,0 km/h (0 Bft) SO 135 0 min 9,2 C 0,0 km/h (0 Bft)
26.05.2016 21:10 17,0 C 16,7 C 60 % 1016,1 hPa 0,0 mm 0,3 km/h (0 Bft) SO 135 0 min 9,2 C 3,6 km/h (1 Bft)
26.05.2016 21:15 16,9 C 16,6 C 61 % 1016,1 hPa 0,0 mm 0,9 km/h (0 Bft) SO 135 0 min 9,3 C 0,0 km/h (0 Bft)
26.05.2016 21:20 16,7 C 16,3 C 62 % 1016,1 hPa 0,0 mm 0,9 km/h (0 Bft) O-SO 112 0 min 9,4 C 0,0 km/h (0 Bft)
26.05.2016 21:25 16,2 C 15,9 C 62 % 1016,1 hPa 0,0 mm 0,0 km/h (0 Bft) S 180 0 min 8,9 C 0,0 km/h (0 Bft)
26.05.2016 21:30 15,5 C 15,3 C 64 % 1016,2 hPa 0,0 mm 0,0 km/h (0 Bft) O-NO 67 0 min 8,7 C 0,0 km/h (0 Bft)
26.05.2016 21:35 15,3 C 15,0 C 66 % 1016,2 hPa 0,0 mm 0,0 km/h (0 Bft) SO 135 0 min 9,0 C 0,0 km/h (0 Bft)
26.05.2016 21:40 15,1 C 14,8 C 67 % 1016,2 hPa 0,0 mm 0,0 km/h (0 Bft) O-NO 67 0 min 9,0 C 0,0 km/h (0 Bft)
26.05.2016 21:45 14,9 C 14,4 C 68 % 1016,2 hPa 0,0 mm 0,0 km/h (0 Bft) NO 45 0 min 9,0 C 0,0 km/h (0 Bft)
26.05.2016 21:50 14,7 C 14,2 C 69 % 1016,4 hPa 0,0 mm 0,0 km/h (0 Bft) N-NO 22 0 min 9,1 C 0,0 km/h (0 Bft)
26.05.2016 21:55 14,5 C 14,0 C 68 % 1016,4 hPa 0,0 mm 0,0 km/h (0 Bft) N-NO 22 0 min 8,7 C 0,0 km/h (0 Bft)
26.05.2016 22:00 14,2 C 13,6 C 69 % 1016,4 hPa 0,0 mm 0,0 km/h (0 Bft) O-NO 67 0 min 8,6 C 0,0 km/h (0 Bft)
26.05.2016 22:05 14,0 C 13,5 C 69 % 1016,4 hPa 0,0 mm 0,0 km/h (0 Bft) NW 315 0 min 8,4 C 0,0 km/h (0 Bft)
26.05.2016 22:10 13,8 C 13,2 C 70 % 1016,4 hPa 0,0 mm 0,0 km/h (0 Bft) NO 45 0 min 8,4 C 0,0 km/h (0 Bft)
26.05.2016 22:15 13,8 C 13,2 C 71 % 1016,4 hPa 0,0 mm 0,0 km/h (0 Bft) SO 135 0 min 8,6 C 0,0 km/h (0 Bft)
26.05.2016 22:20 13,7 C 13,1 C 71 % 1016,4 hPa 0,0 mm 0,0 km/h (0 Bft) NO 45 0 min 8,5 C 0,0 km/h (0 Bft)
26.05.2016 22:25 13,6 C 13,0 C 71 % 1016,4 hPa 0,0 mm 0,0 km/h (0 Bft) NW 315 0 min 8,4 C 0,0 km/h (0 Bft)
26.05.2016 22:30 13,5 C 13,0 C 71 % 1016,4 hPa 0,0 mm 0,0 km/h (0 Bft) N-NO 22 0 min 8,3 C 0,0 km/h (0 Bft)
26.05.2016 22:35 13,3 C 12,8 C 71 % 1016,4 hPa 0,0 mm 0,0 km/h (0 Bft) N-NW 337 0 min 8,2 C 0,0 km/h (0 Bft)
26.05.2016 22:40 13,1 C 12,7 C 72 % 1016,4 hPa 0,0 mm 0,0 km/h (0 Bft) NW 315 0 min 8,2 C 0,0 km/h (0 Bft)
26.05.2016 22:45 13,1 C 12,7 C 72 % 1016,4 hPa 0,0 mm 0,0 km/h (0 Bft) N-NW 337 0 min 8,2 C 0,0 km/h (0 Bft)
26.05.2016 22:50 13,1 C 12,9 C 73 % 1016,2 hPa 0,0 mm 0,0 km/h (0 Bft) N-NO 22 0 min 8,4 C 0,0 km/h (0 Bft)
26.05.2016 22:55 13,0 C 12,9 C 73 % 1016,2 hPa 0,0 mm 0,0 km/h (0 Bft) N-NW 337 0 min 8,3 C 0,0 km/h (0 Bft)
26.05.2016 23:00 13,0 C 13,0 C 73 % 1016,2 hPa 0,0 mm 0,0 km/h (0 Bft) N-NW 337 0 min 8,3 C 0,0 km/h (0 Bft)
26.05.2016 23:05 13,0 C 12,9 C 73 % 1016,2 hPa 0,0 mm 0,0 km/h (0 Bft) NW 315 0 min 8,3 C 0,0 km/h (0 Bft)
26.05.2016 23:10 13,0 C 12,8 C 74 % 1016,1 hPa 0,0 mm 0,0 km/h (0 Bft) N 360 0 min 8,5 C 0,0 km/h (0 Bft)
26.05.2016 23:15 13,0 C 12,8 C 74 % 1016,1 hPa 0,0 mm 0,0 km/h (0 Bft) N-NO 22 0 min 8,5 C 0,0 km/h (0 Bft)
26.05.2016 23:20 13,0 C 12,8 C 74 % 1016,1 hPa 0,0 mm 0,0 km/h (0 Bft) S-SO 157 0 min 8,5 C 0,0 km/h (0 Bft)
26.05.2016 23:25 12,9 C 12,8 C 75 % 1016,1 hPa 0,0 mm 0,0 km/h (0 Bft) O 90 0 min 8,6 C 0,0 km/h (0 Bft)
26.05.2016 23:30 12,8 C 12,6 C 75 % 1016,0 hPa 0,0 mm 0,0 km/h (0 Bft) N 360 0 min 8,5 C 0,0 km/h (0 Bft)
26.05.2016 23:35 12,7 C 12,5 C 75 % 1016,0 hPa 0,0 mm 0,0 km/h (0 Bft) NO 45 0 min 8,4 C 0,0 km/h (0 Bft)
26.05.2016 23:40 12,7 C 12,5 C 76 % 1016,0 hPa 0,0 mm 0,0 km/h (0 Bft) N-NO 22 0 min 8,6 C 0,0 km/h (0 Bft)
26.05.2016 23:45 12,8 C 12,5 C 76 % 1016,0 hPa 0,0 mm 0,0 km/h (0 Bft) NW 315 0 min 8,7 C 0,0 km/h (0 Bft)
26.05.2016 23:50 12,7 C 12,4 C 76 % 1016,2 hPa 0,0 mm 0,0 km/h (0 Bft) NO 45 0 min 8,6 C 0,0 km/h (0 Bft)
26.05.2016 23:55 12,5 C 12,3 C 76 % 1016,2 hPa 0,0 mm 0,0 km/h (0 Bft) N-NO 22 0 min 8,4 C 0,0 km/h (0 Bft)
_ Min-Zeit 02:05 02:00 18:25 05:45 - 23:55 - - - 02:05 23:55
Minimum _ 9,7 C 9,4 C 46 % 1015,8 hPa - 0,0 km/h (0 Bft) - - - 6,8 C 0,0 km/h (0 Bft)
_ Max-Zeit 14:30 14:30 06:15 12:05 23:55 13:55 - - 20:20 08:35 13:20
Maximum _ 22,8 C 29,6 C 83 % 1018,9 hPa 0,0 mm 11,9 km/h
NO (2 Bft)
- - 5 min 12,2 C 23,8 km/h
N-NW (4 Bft)
Durchschnitt _ 16,7 C 19,2 C 63 % 1016,8 hPa #0,0 mm 3,1 km/h (1 Bft) N-NO - #10:37 h 9,1 C 4,1 km/h (1 Bft)